Notices

What's New in latest Release from April 7th, 2021:

- Updated Glossary, including Speed of Maximum Gust, and Total Hourly Precipitation

- Updated national and regional climate services offices contacts and prices information

- Addition of station inventory lists for 1981-2010, 1971-2000, and 1961-1990 Normals.

If you haven't already, please take our survey and provide feedback about our website: https://eccc.sondage-survey.ca/f/LanguageSelection.aspx?s=442ca660-fcf1-47c0-95a9-59707d6fd709

Hourly Data Report for December 15, 2019

CARBERRY CS
MANITOBA
Current Station Operator: ECCC - MSC

49°54'20.900" N
99°21'26.800" W
383.50 m
5010547
71170
WZE

Download Data

Hourly Data (December 2019)
Hourly Data Report for December 15, 2019
TIME
LST
Temp Definition
°C
Dew Point Definition
°C
Rel Hum Definition
%
Precip. Amount Definition
mm

Wind Dir Definition
10's deg

Wind Spd Definition
km/h
Visibility Definition
km
Stn Press Definition
kPa
Hmdx Definition


Wind Chill Definition


Weather Definition


00:00 -28.1 -31.0 76 0.0 19 6   96.79   -34 LegendNANA
01:00 -27.5 -30.4 76 0.0 19 7   96.72   -34 LegendNANA
02:00 -26.1 -29.0 77 0.0 20 6   96.63   -32 LegendNANA
03:00 -25.3 -28.1 77 0.0 20 7   96.58   -32 LegendNANA
04:00 -25.4 -28.2 77 0.0 21 5   96.51   -30 LegendNANA
05:00 -25.0 -27.8 78 0.0 20 4   96.44   -29 LegendNANA
06:00 -23.7 -26.4 78 0.0 21 6   96.42   -29 LegendNANA
07:00 -22.8 -25.3 80 0.0 20 7   96.36   -29 LegendNANA
08:00 -22.2 -24.8 80 0.0 19 9   96.32   -29 LegendNANA
09:00 -20.9 -23.4 80 0.0 19 10   96.26   -28 LegendNANA
10:00 -17.7 -20.1 81 0.0 20 11   96.26   -25 LegendNANA
11:00 -14.2 -16.0 86 0.0 22 11   96.27   -21 LegendNANA
12:00 -12.6 -14.4 87 0.0 23 11   96.22   -19 LegendNANA
13:00 -11.3 -13.0 88 0.0 25 15   96.18   -18 LegendNANA
14:00 -10.6 -12.3 87 0.0 26 20   96.21   -19 LegendNANA
15:00 -10.2 -12.9 81 0.0 27 18   96.27   -18 LegendNANA
16:00 -12.0 -15.0 78 0.0 27 13   96.33   -19 LegendNANA
17:00 -11.3 -14.4 78 0.0 25 12   96.38   -17 LegendNANA
18:00 -12.1 -16.2 71 0.0 29 21   96.46   -21 LegendNANA
19:00 -13.9 -18.0 71 0.0 30 17   96.55   -22 LegendNANA
20:00 -12.8 -17.0 70 0.0 28 26   96.60   -23 LegendNANA
21:00 -15.6 -19.6 71 0.0 28 17   96.64   -24 LegendNANA
22:00 -16.9 -20.4 74 0.0 27 20   96.68   -27 LegendNANA
23:00 -18.8 -22.1 75 0.0 27 9   96.77   -25 LegendNANA

Notes on Data Quality.

Legend

  • E = Estimated
  • M = Missing
  • NA = Not Available*
  • [empty] = Indicates an unobserved value
Date modified: